TimePST,TemperatureF,Dew PointF,Humidity,Sea Level PressureIn,VisibilityMPH,Wind Direction,Wind SpeedMPH,Gust SpeedMPH,PrecipitationIn,Events,Conditions,WindDirDegrees,DateUTC
12:15 AM,41.0,-2.2,16,30.15,10.0,West,10.4,23.0,N/A,,Clear,280,2014-01-08 08:15:00
12:35 AM,42.8,-2.2,15,30.15,10.0,WNW,8.1,23.0,N/A,,Clear,300,2014-01-08 08:35:00
12:55 AM,39.2,6.8,26,30.15,10.0,NNW,10.4,-,N/A,,Clear,340,2014-01-08 08:55:00
1:15 AM,39.2,5.0,24,30.15,10.0,NNW,8.1,17.3,N/A,,Clear,330,2014-01-08 09:15:00
1:35 AM,39.2,6.8,26,30.15,10.0,WNW,11.5,-,N/A,,Clear,300,2014-01-08 09:35:00
1:55 AM,39.2,5.0,24,30.15,10.0,WNW,11.5,-,N/A,,Clear,300,2014-01-08 09:55:00
2:15 AM,35.6,5.0,28,30.15,10.0,WNW,4.6,-,N/A,,Clear,300,2014-01-08 10:15:00
2:35 AM,32.0,5.0,32,30.15,10.0,West,9.2,-,N/A,,Clear,280,2014-01-08 10:35:00
2:55 AM,33.8,6.8,32,30.15,10.0,NNW,3.5,-,N/A,,Clear,330,2014-01-08 10:55:00
3:15 AM,32.0,6.8,35,30.14,10.0,West,10.4,-,N/A,,Clear,260,2014-01-08 11:15:00
3:35 AM,32.0,6.8,35,30.14,10.0,SSW,3.5,-,N/A,,Clear,200,2014-01-08 11:35:00
3:55 AM,32.0,10.4,41,30.14,10.0,ESE,5.8,-,N/A,,Clear,120,2014-01-08 11:55:00
4:15 AM,32.0,12.2,44,30.14,10.0,ESE,9.2,-,N/A,,Clear,110,2014-01-08 12:15:00
4:35 AM,32.0,12.2,44,30.14,10.0,SSE,4.6,-,N/A,,Clear,150,2014-01-08 12:35:00
4:55 AM,26.6,10.4,51,30.13,10.0,SE,4.6,-,N/A,,Clear,140,2014-01-08 12:55:00
5:15 AM,24.8,10.4,54,30.13,10.0,Calm,Calm,-,N/A,,Clear,0,2014-01-08 13:15:00
5:35 AM,24.8,6.8,46,30.13,10.0,Calm,Calm,-,N/A,,Clear,0,2014-01-08 13:35:00
5:55 AM,23.0,6.8,50,30.14,10.0,Calm,Calm,-,N/A,,Clear,0,2014-01-08 13:55:00
6:15 AM,21.2,5.0,50,30.15,10.0,Calm,Calm,-,N/A,,Clear,0,2014-01-08 14:15:00
6:35 AM,19.4,5.0,54,30.15,10.0,Calm,Calm,-,N/A,,Clear,0,2014-01-08 14:35:00
6:55 AM,17.6,5.0,58,30.15,10.0,Calm,Calm,-,N/A,,Clear,0,2014-01-08 14:55:00
7:15 AM,15.8,1.4,53,30.15,10.0,Calm,Calm,-,N/A,,Clear,0,2014-01-08 15:15:00
7:35 AM,12.2,1.4,62,30.16,10.0,Calm,Calm,-,N/A,,Clear,0,2014-01-08 15:35:00
7:55 AM,15.8,3.2,58,30.16,10.0,Calm,Calm,-,N/A,,Clear,0,2014-01-08 15:55:00
8:15 AM,21.2,6.8,54,30.17,10.0,Calm,Calm,-,N/A,,Clear,0,2014-01-08 16:15:00
8:35 AM,24.8,6.8,46,30.18,10.0,Calm,Calm,-,N/A,,Clear,0,2014-01-08 16:35:00
8:55 AM,32.0,8.6,38,30.19,10.0,Calm,Calm,-,N/A,,Clear,0,2014-01-08 16:55:00
9:15 AM,35.6,8.6,33,30.19,10.0,Calm,Calm,-,N/A,,Clear,0,2014-01-08 17:15:00
9:35 AM,39.2,12.2,33,30.19,10.0,SE,4.6,-,N/A,,Clear,140,2014-01-08 17:35:00
9:55 AM,39.2,12.2,33,30.20,10.0,SSE,5.8,-,N/A,,Clear,150,2014-01-08 17:55:00
10:15 AM,42.8,10.4,27,30.18,10.0,SE,5.8,-,N/A,,Clear,140,2014-01-08 18:15:00
10:35 AM,44.6,8.6,23,30.17,10.0,ESE,9.2,-,N/A,,Clear,110,2014-01-08 18:35:00
10:55 AM,46.4,6.8,20,30.15,10.0,ESE,9.2,-,N/A,,Clear,110,2014-01-08 18:55:00
11:15 AM,48.2,6.8,19,30.15,10.0,ESE,8.1,-,N/A,,Clear,120,2014-01-08 19:15:00
11:35 AM,50.0,5.0,16,30.13,10.0,ESE,9.2,-,N/A,,Clear,110,2014-01-08 19:35:00
11:55 AM,51.8,3.2,14,30.11,10.0,ESE,9.2,-,N/A,,Clear,120,2014-01-08 19:55:00
12:15 PM,51.8,3.2,14,30.10,10.0,ESE,10.4,-,N/A,,Clear,110,2014-01-08 20:15:00
12:35 PM,53.6,1.4,12,30.08,10.0,ESE,9.2,-,N/A,,Clear,120,2014-01-08 20:35:00
12:55 PM,55.4,1.4,11,30.07,10.0,South,6.9,-,N/A,,Clear,170,2014-01-08 20:55:00
1:15 PM,51.8,3.2,14,30.07,10.0,East,8.1,-,N/A,,Clear,100,2014-01-08 21:15:00
1:35 PM,50.0,3.2,15,30.06,10.0,ESE,4.6,-,N/A,,Clear,110,2014-01-08 21:35:00
1:55 PM,50.0,3.2,15,30.07,10.0,SW,4.6,-,N/A,,Clear,230,2014-01-08 21:55:00
2:15 PM,50.0,1.4,14,30.07,10.0,NW,11.5,17.3,N/A,,Scattered Clouds,310,2014-01-08 22:15:00
2:35 PM,50.0,3.2,15,30.08,10.0,NW,8.1,16.1,N/A,,Mostly Cloudy,310,2014-01-08 22:35:00
2:55 PM,50.0,5.0,16,30.09,10.0,WNW,9.2,-,N/A,,Overcast,290,2014-01-08 22:55:00
3:15 PM,48.2,8.6,20,30.10,10.0,NW,6.9,-,N/A,,Overcast,310,2014-01-08 23:15:00
3:35 PM,46.4,8.6,22,30.10,10.0,NW,6.9,-,N/A,,Overcast,310,2014-01-08 23:35:00
3:55 PM,46.4,8.6,22,30.10,10.0,NNW,8.1,-,N/A,,Overcast,330,2014-01-08 23:55:00
4:15 PM,46.4,8.6,22,30.12,10.0,NNW,8.1,-,N/A,,Overcast,330,2014-01-09 00:15:00
4:35 PM,44.6,6.8,21,30.11,10.0,East,10.4,-,N/A,,Scattered Clouds,100,2014-01-09 00:35:00
4:55 PM,41.0,6.8,24,30.12,10.0,East,3.5,-,N/A,,Scattered Clouds,100,2014-01-09 00:55:00
5:15 PM,41.0,6.8,24,30.12,10.0,ESE,8.1,-,N/A,,Scattered Clouds,120,2014-01-09 01:15:00
5:35 PM,37.4,6.8,28,30.14,10.0,ESE,8.1,-,N/A,,Clear,110,2014-01-09 01:35:00
5:55 PM,35.6,6.8,30,30.15,10.0,SSW,4.6,-,N/A,,Clear,200,2014-01-09 01:55:00
6:15 PM,33.8,5.0,30,30.15,10.0,Calm,Calm,-,N/A,,Clear,0,2014-01-09 02:15:00
6:35 PM,32.0,5.0,32,30.16,10.0,Calm,Calm,-,N/A,,Clear,0,2014-01-09 02:35:00
6:55 PM,32.0,5.0,32,30.17,10.0,Calm,Calm,-,N/A,,Clear,0,2014-01-09 02:55:00
7:15 PM,32.0,6.8,35,30.15,10.0,Calm,Calm,-,N/A,,Clear,0,2014-01-09 03:15:00
7:35 PM,30.2,6.8,37,30.16,10.0,Calm,Calm,-,N/A,,Clear,0,2014-01-09 03:35:00
7:55 PM,26.6,5.0,40,30.17,10.0,Calm,Calm,-,N/A,,Clear,0,2014-01-09 03:55:00
8:15 PM,24.8,5.0,43,30.18,10.0,Calm,Calm,-,N/A,,Clear,0,2014-01-09 04:15:00
8:35 PM,24.8,6.8,46,30.18,10.0,Calm,Calm,-,N/A,,Clear,0,2014-01-09 04:35:00
8:55 PM,19.4,3.2,49,30.18,10.0,NNW,3.5,-,N/A,,Clear,340,2014-01-09 04:55:00
9:15 PM,23.0,6.8,50,30.18,10.0,Calm,Calm,-,N/A,,Clear,0,2014-01-09 05:15:00
9:35 PM,23.0,5.0,46,30.18,10.0,NNW,4.6,-,N/A,,Clear,340,2014-01-09 05:35:00
9:55 PM,23.0,6.8,50,30.17,10.0,Calm,Calm,-,N/A,,Clear,0,2014-01-09 05:55:00
10:15 PM,19.4,5.0,54,30.17,10.0,NW,6.9,-,N/A,,Clear,320,2014-01-09 06:15:00
10:35 PM,21.2,8.6,58,30.17,10.0,Calm,Calm,-,N/A,,Clear,0,2014-01-09 06:35:00
10:55 PM,19.4,6.8,58,30.16,10.0,Calm,Calm,-,N/A,,Clear,0,2014-01-09 06:55:00
11:15 PM,17.6,6.8,63,30.15,10.0,Calm,Calm,-,N/A,,Clear,0,2014-01-09 07:15:00
11:35 PM,21.2,8.6,58,30.15,10.0,North,4.6,-,N/A,,Clear,350,2014-01-09 07:35:00
11:55 PM,17.6,6.8,63,30.15,10.0,NW,3.5,-,N/A,,Clear,320,2014-01-09 07:55:00